sat.trackr.live / text

‹ back to catalog

STARLINK-34301

NORAD 64349 · 2025-126F

PAYLOAD ACTIVE UNKNOWN

§ Identity

Operator
Country
US
Launch date
2025-06-13
Launch site
AFWTR
Launch vehicle
Mass (kg)
RCS (m²)

Purposes: comms

External: N2YO · Heavens-Above · Gunter

§ Orbital elements

Epoch: 2026-05-25T03:07:32.780064Z

Period
96.11 min
Inclination
70.0006°
Eccentricity
0.0003727
Mean motion
14.98335508 rev/d
Perigee alt
569.4 km
Apogee alt
574.6 km
Semi-major
6,950.2 km
B*
1.5924e-4
RAAN
201.6528°
Arg perigee
266.6412°
Mean anomaly
93.4321°
Rev number
5,213

§ Raw data

STARLINK-343011 64349U 25126F   26145.13024051  .00001808  00000+0  15924-3 0  99962 64349  70.0006 201.6528 0003727 266.6412  93.4321 14.98335508 52130

JSON: /api/v1/satellites/64349 · /tle

For live sub-satellite position, see the globe view (requires WebGL).

§ Visibility from observer

Set your observer location to see the next 7 days of passes ≥ 10°. The values pass through the URL so the page stays shareable.

No JS? Fill the form by hand. The geolocation button needs JavaScript.